www.pogodaiklimat.ru

Погода и климат >> Архив погоды >> Великобритания >> Бридлингтон


ПОГОДА в Бридлингтоне

  • Прогноз погоды в Бридлингтоне
  • Монитор погоды в Бридлингтоне

АРХИВ ПОГОДЫ в Бридлингтоне

Время (UTC), дата Ветер
(напр.,м/с)
 
Видим.   Явления Облачность Т
(С)
Тd
(С)
f
(%)
Тe
(С)
Тes
(С)
Комфортность P
(гПа)
Po
(гПа)
Тmin
(С)
Tmax
(С)
R
(мм)
R24
(мм)
S
(см)
16 16.09 С 5 н/о н/о +15.0 +5.9 54 +14 +14 1021.6 1019.8
17 16.09 СВ 2 н/о н/о +14.1 +6.5 60 +14 +14 1021.8 1020.0
18 16.09 В 1 н/о н/о +12.7 +6.4 65 +14 +14 1022.0 1020.2 +17.5
19 16.09 ЮЗ 2 н/о н/о +12.7 +7.6 71 +12 +12 1022.2 1020.3
20 16.09 З 3 н/о н/о +11.0 +6.8 75 +9 +9 1022.4 1020.6
21 16.09 З 3 н/о н/о +10.9 +6.6 75 +9 +9 1022.3 1020.4
22 16.09 З 3 н/о н/о +10.8 +6.3 74 +9 +9 1022.3 1020.5
23 16.09 СЗ 3 н/о н/о +10.2 +6.5 78 +8 +8 1022.1 1020.3
00 17.09 З 4 н/о н/о +9.8 +6.1 78 +7 +7 1022.1 1020.2
01 17.09 З 3 н/о н/о +8.4 +5.4 81 +6 +6 1022.2 1020.4
02 17.09 З 3 н/о н/о +8.3 +5.6 83 +6 +6 1022.3 1020.4
03 17.09 З 4 н/о н/о +8.5 +5.7 83 +5 +5 1022.4 1020.5
04 17.09 З 3 н/о н/о +7.7 +5.3 85 +5 +5 1022.3 1020.5
05 17.09 З 3 н/о н/о +7.6 +5.5 87 +5 +5 1022.3 1020.4
06 17.09 СЗ 4 н/о н/о +8.0 +5.6 85 +5 +5 1022.6 1020.7 +7.4
07 17.09 СЗ 4 н/о н/о +9.2 +6.2 81 +6 +6 1023.3 1021.4
08 17.09 СЗ 4 н/о н/о +11.9 +7.0 72 +10 +10 1023.7 1021.8
09 17.09 СЗ 4 н/о н/о +14.1 +6.6 61 +13 +13 1024.0 1022.2
10 17.09 С 7 н/о н/о +14.4 +5.7 56 +13 +13 1024.6 1022.8
11 17.09 С 8 н/о н/о +14.3 +6.1 58 +12 +12 1025.3 1023.4
12 17.09 С 7 н/о н/о +14.5 +4.9 52 +13 +13 1025.9 1024.0
13 17.09 С 6 н/о н/о +14.8 +5.1 52 +13 +13 1025.8 1024.0
14 17.09 С 6 н/о н/о +14.5 +4.7 52 +13 +13 1026.3 1024.5
15 17.09 С 6 н/о н/о +14.0 +3.9 51 +12 +12 1026.8 1024.9
16 17.09 С 6 н/о н/о +13.2 +4.7 56 +11 +11 1026.9 1025.0
17 17.09 С 6 н/о н/о +12.6 +4.4 57 +10 +10 1027.1 1025.3
18 17.09 С 5 н/о н/о +11.8 +4.9 63 +10 +10 1026.9 1025.1 +15.0
19 17.09 С 5 н/о н/о +11.4 +4.8 64 +9 +9 1027.4 1025.6
20 17.09 С 1 н/о н/о +10.4 +4.8 68 +10 +10 1027.9 1026.0
21 17.09 С 2 н/о н/о +9.8 +4.6 70 +9 +9 1028.2 1026.4
22 17.09 СЗ 2 н/о н/о +9.1 +4.5 73 +8 +8 1028.7 1026.8
23 17.09 СЗ 3 н/о н/о +7.9 +4.3 78 +5 +5 1028.6 1026.7
00 18.09 СЗ 4 н/о н/о +7.5 +4.3 80 +4 +4 1028.7 1026.9
01 18.09 СЗ 4 н/о н/о +7.7 +4.5 80 +5 +5 1028.8 1026.9
02 18.09 СЗ 4 н/о н/о +7.5 +4.5 81 +4 +4 1028.8 1026.9
03 18.09 СЗ 4 н/о н/о +7.2 +4.4 82 +4 +4 1028.8 1026.9
04 18.09 СЗ 4 н/о н/о +7.2 +4.1 81 +4 +4 1028.7 1026.8
05 18.09 СЗ 4 н/о н/о +6.6 +3.9 83 +3 +3 1028.7 1026.8
06 18.09 СЗ 4 н/о н/о +7.1 +4.3 82 +4 +4 1029.0 1027.1 +6.5
07 18.09 СЗ 3 н/о н/о +9.3 +5.4 77 +7 +7 1029.2 1027.3
08 18.09 З 3 н/о н/о +12.2 +7.0 71 +11 +11 1029.5 1027.6
09 18.09 З 2 н/о н/о +14.3 +5.6 56 +14 +14 1029.8 1028.0
10 18.09 ЮЗ 5 н/о н/о +15.3 +5.4 52 +14 +14 1029.5 1027.7
11 18.09 Ю 2 н/о н/о +16.9 +6.4 50 +17 +17 1029.2 1027.4
12 18.09 СЗ 3 н/о н/о +18.4 +5.1 42 +19 +19 1029.2 1027.4
13 18.09 ЮВ 3 н/о н/о +16.9 +8.6 58 +17 +17 1029.2 1027.4
14 18.09 В 4 н/о н/о +17.1 +9.2 60 +17 +17 1029.1 1027.3
15 18.09 СВ 4 н/о н/о +16.6 +8.2 58 +16 +16 1029.0 1027.2
16 18.09 В 4 н/о н/о +15.3 +7.0 58 +15 +15 1029.0 1027.2
17 18.09 В 3 н/о н/о +14.2 +7.7 65 +13 +13 1029.0 1027.2
18 18.09 В 2 н/о н/о +12.8 +6.8 67 +12 +12 1029.1 1027.3 +19.0
19 18.09 СВ 1 н/о н/о +11.3 +6.7 73 +11 +11 1029.8 1027.9
20 18.09 С 1 н/о н/о +11.0 +6.6 74 +12 +12 1030.1 1028.2
21 18.09 СЗ 2 н/о н/о +10.8 +6.4 74 +10 +10 1030.3 1028.4
22 18.09 З 3 н/о н/о +11.1 +6.4 73 +10 +10 1030.3 1028.5
23 18.09 СЗ 3 н/о н/о +10.9 +6.6 75 +9 +9 1030.4 1028.6
00 19.09 СЗ 3 н/о н/о +11.0 +6.4 73 +9 +9 1030.3 1028.5
01 19.09 СЗ 2 н/о н/о +10.9 +5.8 71 +10 +10 1030.4 1028.5
02 19.09 СЗ 3 н/о н/о +9.7 +5.8 77 +7 +7 1030.1 1028.3
03 19.09 СЗ 3 н/о н/о +9.6 +5.9 78 +7 +7 1030.0 1028.1
04 19.09 СЗ 3 н/о н/о +9.8 +6.5 80 +8 +8 1029.9 1028.1
05 19.09 СЗ 4 н/о н/о +9.1 +6.3 83 +6 +6 1030.0 1028.2
06 19.09 СЗ 4 н/о н/о +9.3 +6.9 85 +7 +7 1030.2 1028.4 +9.0
07 19.09 СЗ 3 н/о н/о +10.8 +8.3 85 +9 +9 1030.7 1028.9
08 19.09 З 2 н/о н/о +14.4 +9.4 72 +14 +14 1031.1 1029.3
09 19.09 Ю 2 н/о н/о +16.5 +10.7 69 +17 +17 1031.4 1029.6
10 19.09 Ю 3 н/о н/о +17.4 +11.4 68 +17 +17 1031.3 1029.5
11 19.09 Ю 4 н/о н/о +18.2 +11.8 66 +18 +18 1031.1 1029.2
12 19.09 ЮВ 5 н/о н/о +18.6 +12.7 69 +19 +19 1030.7 1028.9
13 19.09 ЮВ 4 н/о н/о +17.7 +12.3 71 +17 +17 1030.4 1028.6
14 19.09 ЮВ 6 н/о н/о +17.5 +11.7 69 +17 +17 1030.0 1028.2
15 19.09 ЮВ 6 н/о н/о +16.4 +11.6 73 +15 +15 1029.6 1027.8
16 19.09 В 1 н/о н/о +15.9 +11.2 74 +17 +17 1029.7 1027.8
17 19.09 ЮВ 3 н/о н/о +15.1 +11.2 78 +15 +15 1029.4 1027.6
18 19.09 ЮВ 2 н/о н/о +14.5 +11.2 81 +14 +14 1029.4 1027.6 +18.7
19 19.09 Ю 1 н/о н/о +14.7 +11.7 82 +15 +15 1029.4 1027.6
20 19.09 Ю 2 н/о н/о +14.5 +12.2 86 +14 +14 1029.4 1027.6
21 19.09 ЮЗ 2 н/о н/о +13.4 +10.6 83 +13 +13 1029.5 1027.6
22 19.09 З 2 н/о н/о +12.1 +9.7 85 +11 +11 1029.5 1027.7
23 19.09 З 2 н/о н/о +11.5 +9.6 88 +10 +10 1029.4 1027.6
00 20.09 З 2 н/о н/о +11.5 +9.9 90 +10 +10 1029.2 1027.3
01 20.09 З 2 н/о н/о +10.9 +9.5 91 +10 +10 1029.1 1027.2
02 20.09 З 2 н/о н/о +10.5 +9.5 94 +9 +9 1028.7 1026.9
03 20.09 З 3 н/о н/о +10.0 +9.0 93 +8 +8 1028.3 1026.4
04 20.09 З 2 н/о н/о +9.6 +8.6 93 +8 +8 1028.0 1026.1
05 20.09 З 3 н/о н/о +9.4 +8.5 94 +7 +7 1027.5 1025.7
06 20.09 З 2 н/о н/о +9.2 +8.5 95 +7 +7 1027.6 1025.8 +9.2
07 20.09 З 1 н/о н/о +9.9 +9.6 98 +9 +9 1027.6 1025.8
08 20.09 ЮЗ 1 н/о н/о +12.8 +10.9 88 +13 +13 1027.8 1026.0
09 20.09 Ю 3 н/о н/о +14.4 +10.8 79 +14 +14 1027.9 1026.1
10 20.09 Ю 2 н/о н/о +15.8 +11.0 73 +16 +16 1027.6 1025.8
11 20.09 В 2 н/о н/о +17.3 +12.3 72 +18 +18 1027.2 1025.4
12 20.09 ЮВ 6 н/о н/о +17.5 +12.4 72 +17 +17 1026.7 1024.9
13 20.09 ЮВ 7 н/о н/о +17.3 +13.0 76 +16 +16 1026.3 1024.5
14 20.09 ЮВ 8 н/о н/о +16.5 +12.9 79 +15 +15 1025.6 1023.8
15 20.09 ЮВ 8 н/о н/о +16.2 +12.8 80 +15 +15 1025.0 1023.2
16 20.09 ЮВ 8 н/о н/о +15.4 +12.6 83 +13 +13 1024.1 1022.3
17 20.09 ЮВ 7 н/о н/о +14.7 +12.6 87 +13 +13 1023.6 1021.8
18 20.09 ЮВ 7 н/о н/о +14.3 +12.8 91 +12 +12 1023.1 1021.2 +18.7
19 20.09 ЮВ 8 н/о н/о +14.2 +13.1 93 +12 +12 1023.0 1021.2
20 20.09 ЮВ 8 н/о н/о +14.2 +12.6 90 +12 +12 1022.9 1021.1
21 20.09 ЮВ 7 н/о н/о +14.0 +12.6 91 +12 +12 1022.6 1020.8
22 20.09 ЮВ 5 н/о н/о +13.8 +12.7 93 +12 +12 1022.2 1020.4
23 20.09 ЮВ 6 н/о н/о +13.8 +12.8 94 +12 +12 1021.7 1019.9
00 21.09 ЮВ 6 н/о н/о +13.8 +12.9 94 +12 +12 1021.3 1019.5
01 21.09 ЮВ 6 н/о н/о +13.8 +13.0 95 +12 +12 1020.8 1019.0
02 21.09 ЮВ 5 н/о н/о +13.7 +13.0 96 +12 +12 1020.2 1018.4
03 21.09 ЮВ 5 н/о н/о +13.6 +13.0 96 +12 +12 1019.6 1017.7
04 21.09 ЮВ 5 н/о н/о +13.6 +13.1 97 +12 +12 1018.8 1017.0
05 21.09 ЮВ 5 н/о н/о +13.7 +13.2 97 +12 +12 1018.2 1016.4
06 21.09 ЮВ 6 н/о н/о +13.8 +13.2 96 +12 +12 1018.0 1016.1 +13.6
07 21.09 ЮВ 5 н/о н/о +14.6 +13.7 94 +13 +13 1017.6 1015.7
08 21.09 ЮВ 7 н/о н/о +15.8 +13.6 87 +14 +14 1017.2 1015.4
09 21.09 ЮВ 8 н/о н/о +16.6 +13.5 82 +15 +15 1016.9 1015.1
10 21.09 ЮВ 7 н/о н/о +17.4 +13.7 79 +16 +16 1016.6 1014.8
11 21.09 ЮВ 7 н/о н/о +17.7 +13.8 78 +17 +17 1015.8 1014.0
12 21.09 В 6 н/о н/о +17.6 +13.7 78 +17 +17 1015.0 1013.2
13 21.09 В 7 н/о н/о +17.4 +13.6 78 +16 +16 1013.9 1012.2
14 21.09 ЮВ 7 н/о н/о +17.7 +13.2 75 +17 +17 1013.3 1011.5
15 21.09 ЮВ 8 н/о н/о +16.7 +13.0 79 +15 +15 1012.5 1010.7
16 21.09 В 9 н/о н/о +15.5 +12.9 84 +13 +13 1011.5 1009.7
17 21.09 ЮВ 9 н/о н/о +15.1 +13.0 87 +13 +13 1011.1 1009.3
18 21.09 В 8
{13}
н/о н/о +14.7 +13.1 90 +12 +12 1010.7 1008.9 +18.0
19 21.09 ЮВ 6 н/о н/о +14.5 +13.2 92 +13 +13 1010.6 1008.8
20 21.09 ЮВ 8 н/о н/о +14.7 +13.4 92 +12 +12 1010.0 1008.2
21 21.09 ЮВ 7 н/о н/о +14.6 +13.6 94 +13 +13 1009.7 1007.9
22 21.09 ЮВ 5 н/о н/о +14.3 +13.5 95 +13 +13 1009.5 1007.7
23 21.09 В 3 н/о н/о +14.0 +13.3 96 +13 +13 1008.8 1007.0
00 22.09 В 3 н/о н/о +14.1 +13.5 96 +13 +13 1008.2 1006.4
01 22.09 В 2 н/о н/о +14.1 +13.5 96 +13 +13 1007.7 1005.9
02 22.09 В 3 н/о н/о +14.2 +13.5 96 +13 +13 1006.7 1004.9
03 22.09 В 3 н/о н/о +13.9 +13.3 96 +13 +13 1006.2 1004.4
04 22.09 В 4 н/о н/о +14.4 +13.5 94 +13 +13 1005.5 1003.8
05 22.09 В 3 н/о н/о +14.5 +13.5 94 +14 +14 1005.0 1003.2
06 22.09 В 3 н/о н/о +14.6 +13.7 94 +14 +14 1004.7 1002.9 +13.3 0.2
07 22.09 В 4 н/о н/о +15.3 +14.3 94 +14 +14 1004.6 1002.8
08 22.09 В 2 н/о н/о +17.0 +14.7 86 +17 +17 1004.2 1002.5
09 22.09 В 4 н/о н/о +17.4 +14.0 80 +17 +17 1004.0 1002.3
10 22.09 ЮВ 4 н/о н/о +18.4 +14.5 78 +19 +19 1004.1 1002.3
11 22.09 В 3 н/о н/о +18.8 +14.6 77 +20 +20 1003.3 1001.6
12 22.09 В 6 н/о н/о +17.9 +13.9 77 +17 +17 1002.7 1001.0
13 22.09 В 3 н/о н/о +17.8 +14.2 79 +18 +18 1002.4 1000.6
14 22.09 В 3 н/о н/о +17.6 +14.1 80 +18 +18 1002.3 1000.6
15 22.09 ЮВ 3 н/о н/о +17.2 +14.2 83 +17 +17 1002.1 1000.3
16 22.09 В 3 н/о н/о +15.9 +13.9 88 +16 +16 1001.9 1000.1
17 22.09 ЮВ 4 н/о н/о +15.5 +14.1 91 +14 +14 1001.5 999.7
18 22.09 В 2 н/о н/о +15.4 +14.2 93 +15 +15 1001.8 1000.1 +18.9
19 22.09 З 4 н/о н/о +16.9 +15.5 91 +16 +16 1002.9 1001.2
20 22.09 З 4 н/о н/о +15.9 +14.9 94 +15 +15 1002.8 1001.0
21 22.09 ЮЗ 3 н/о н/о +15.4 +14.6 95 +15 +15 1003.2 1001.4
22 22.09 ЮЗ 3 н/о н/о +15.3 +14.4 94 +15 +15 1003.9 1002.1
23 22.09 Ю 4 н/о н/о +15.1 +14.4 96 +14 +14 1004.2 1002.5
00 23.09 Ю 2 н/о н/о +15.0 +14.5 97 +15 +15 1004.5 1002.8 2
01 23.09 Ю 2 н/о н/о +15.0 +14.4 96 +15 +15 1005.1 1003.3
02 23.09 Ю 4 н/о н/о +14.8 +14.2 96 +14 +14 1005.2 1003.4
03 23.09 ЮЗ 4 н/о н/о +14.3 +13.7 96 +13 +13 1005.1 1003.3
04 23.09 Ю 5 н/о н/о +14.0 +13.4 96 +12 +12 1005.5 1003.7
05 23.09 ЮЗ 5 н/о н/о +13.8 +12.9 94 +12 +12 1005.7 1003.9
06 23.09 Ю 6 н/о н/о +13.6 +12.8 95 +11 +11 1006.1 1004.3 +13.5 2
07 23.09 Ю 6 н/о н/о +13.8 +13.0 95 +12 +12 1006.6 1004.8
08 23.09 ЮЗ 4 н/о н/о +14.1 +13.1 94 +13 +13 1007.1 1005.3
09 23.09 ЮЗ 3 н/о н/о +15.0 +13.7 92 +14 +14 1007.6 1005.8
10 23.09 Ю 4 н/о н/о +15.7 +14.2 91 +15 +15 1007.8 1006.1
11 23.09 ЮЗ 5 н/о н/о +16.5 +13.2 81 +16 +16 1008.0 1006.2
12 23.09 Ю 6 н/о н/о +18.6 +12.7 69 +19 +19 1008.1 1006.3
13 23.09 ЮЗ 5 н/о н/о +18.1 +10.1 60 +18 +18 1008.1 1006.4
14 23.09 Ю 7 н/о н/о +18.5 +11.8 65 +18 +18 1008.0 1006.2
15 23.09 Ю 8 н/о н/о +18.5 +10.1 58 +18 +18 1007.8 1006.0
16 23.09 Ю 8 н/о н/о +17.4 +11.6 69 +16 +16 1007.6 1005.9

 

Местоположение метеостанции Бридлингтон (Великобритания): широта 54.10 долгота -0.17 высота над уровнем моря 19 м.

В архиве по умолчанию представлена погода в Бридлингтоне за последнюю неделю. Архивные данные за месяц целиком и за предыдущие месяцы, начиная с января 2011 года, Вы можете получить, выбрав интересующий диапазон дат из раскрывающегося списка и нажав кнопку "Ввод!".


*Определитесь, кто Вы:
робот инопланетянин человек

Внимание! Время в таблицах - всемирное. Для получения местного времени необходимо прибавить поправку, которая равна 0 ч.

Смотрите также архив погоды в соседних городах и на ближайших метеорологических станциях:

Погода в Леконфилде (Великобритания) (31 км)
Погода в Файлингдейлсе (Великобритания) (44 км)
Погода в Лофтусе (Великобритания) (69 км)
Погода в Линтон-он-Узе (Великобритания) (71 км)
Погода в Донна Нук (Великобритания) (71 км)
Погода в Топклиффе (Великобритания) (80 км)
Погода в Дишфорт Эйрфилд (Великобритания) (82 км)
Погода в Лееминге (Великобритания) (91 км)
Погода в Скемптоне (Великобритания) (92 км)
Погода в Уоддингтоне (Великобритания) (106 км)

Пояснения к столбцам:

Ветер - указаны скорость ветра в м/с - средняя за 10 мин, порывы в срок и между сроками (в фигурных скобках) и направление, откуда дует ветер: С - северный, СВ - северо-восточный, В - восточный, ЮВ - юго-восточный, Ю - южный, ЮЗ - юго-западный, З - западный, СЗ - северо-западный.
Видимость - горизонтальная дальность видимости в метрах или километрах. При видимости от 1 до 10 км при отсутствии осадков обычно наблюдается дымка, при ухудшении видимости до 1 км и менее - туман. В сухую погоду видимость может ухудшаться дымом, пылью или мглою.
Явления - указаны атмосферные явления, наблюдавшиеся в срок или в последний час перед сроком; фигурными скобками обозначены явления, наблюдавшиеся между сроками (за 1-3 часа до срока); квадратными скобками обозначены град или гололедные отложения с указанием их диаметра в мм.
Облачность - указаны через наклонную черту общая и нижняя облачность в баллах и высота нижней границы облаков в метрах; квадратными скобками обозначены формы облаков: Ci - перистые, Cs - перисто-слоистые, Cc - перисто-кучевые, Ac - высококучевые, As - высокослоистые, Sc - слоисто-кучевые, Ns - слоисто-дождевые, Cu - кучевые, Cb - кучево-дождевые. Подробнее классификацию облаков см. в Атласе облаков (PDF).
T - Температура воздуха - температура, измеренная на высоте 2 м над землей.
Td - Температура точки росы - температура, при понижении до которой содержащийся в воздухе водяной пар достигнет насыщения.
f - Относительная влажность воздуха - влажноcть воздуха, измеренная на высоте 2 м над землей.
Te - Эффективная температура - температура, которую ощущает одетый по сезону человек в тени. Характеристика душности погоды. При расчете учитывается влияние влажности воздуха и скорости ветра на теплоощущения человека.
Tes - Эффективная температура на солнце - температура, которую ощущает человек, с поправкой на солнечный нагрев. Характеристика знойности погоды. Зависит от высоты солнца над горизонтом, облачности и скорости ветра. Ночью, в пасмурную погоду, а также при ветре 12 м/с и более поправка равна нулю.
P - Атмосферное давление - приведенное к уровню моря атмосферное давление.
Po - Атмосферное давление - измеренное на уровне метеостанции атмосферное давление.
Tmin - Минимальная температура - минимум температуры воздуха на высоте 2 м над землей.
Tmax - Максимальная температура - максимум температуры воздуха на высоте 2 м над землей.
R - Количество осадков - Количество выпавших осадков за период времени, мм. При наведении курсора мыши на число - период времени, за который выпало указанное количество осадков.
R24 - Количество осадков - Количество выпавших осадков за 24 часа, мм.
S - Снежный покров - Высота снежного покрова, см. При наведении курсора мыши на число - состояние снежного покрова и степень покрытия местности в баллах.